Location: Unspecified
(0.0000°N, 0.0000°E)
Time: 06:16:58
(UTC+02:00)

PROBA 2 - Visible Passes

Search period start: 27 May 2017 00:00
Search period end: 06 June 2017 00:00
Orbit: 706 x 726 km, 98.3° (Epoch: 26 May)

Date Brightness Start Highest point End Pass type
(mag) Time Alt. Az. Time Alt. Az. Time Alt. Az.
27 May ? 21:05:04 10° NNW 21:08:53 23° WNW 21:12:44 10° SW visible
28 May ? 20:13:05 10° NNE 20:17:54 75° ESE 20:22:47 10° S visible
29 May ? 21:00:40 10° NNW 21:04:41 26° WNW 21:08:45 10° SW visible
31 May ? 20:56:18 10° NNW 21:00:30 30° WNW 21:04:45 10° SW visible
02 Jun ? 20:51:57 10° NNW 20:56:19 34° WNW 21:00:42 10° SW visible
04 Jun ? 20:47:38 10° N 20:52:08 38° WNW 20:56:38 10° SW visible
